﻿_id,日時,平均風速(m/s),平均風向,最大瞬間風速(m/s),最大風速時風向,気温(℃),湿度(%),10分間移動積算雨量(mm),1時間移動積算雨量(mm),日雨量(mm),累計雨量(mm)
1,2021-03-22T00:00:00,4.2,北,7.7,北北西,8.6,96.6,0,0,22,22
2,2021-03-22T00:01:00,4.3,北,7.7,北北西,8.6,96.6,0,0,0,22
3,2021-03-22T00:02:00,4.4,北,7.7,北北西,8.7,96.5,0,0,0,22
4,2021-03-22T00:03:00,4.5,北,7.7,北北西,8.7,96.5,0,0,0,22
5,2021-03-22T00:04:00,4.3,北,7.7,北北西,8.7,96.4,0,0,0,22
6,2021-03-22T00:05:00,4.3,北,7.7,北北西,8.7,96.2,0,0,0,22
7,2021-03-22T00:06:00,4.3,北,7.1,北,8.7,96,0,0,0,22
8,2021-03-22T00:07:00,4.1,北,7.1,北,8.7,95.9,0,0,0,22
9,2021-03-22T00:08:00,3.9,北,7.1,北,8.7,95.8,0,0,0,22
10,2021-03-22T00:09:00,3.6,北,7.1,北,8.6,95.6,0,0,0,22
11,2021-03-22T00:10:00,3.4,北,7.1,北,8.6,95.4,0,0,0,22
12,2021-03-22T00:11:00,3.3,北北西,7.1,北,8.6,95.1,0,0,0,22
13,2021-03-22T00:12:00,3.2,北北西,7.1,北,8.6,94.8,0,0,0,22
14,2021-03-22T00:13:00,3,北北西,7.1,北,8.6,94.6,0,0,0,22
15,2021-03-22T00:14:00,2.9,北北西,7.1,北,8.6,94.3,0,0,0,22
16,2021-03-22T00:15:00,2.7,北北西,6.3,北,8.5,94.1,0,0,0,22
17,2021-03-22T00:16:00,2.5,北北西,4.2,北北西,8.6,93.9,0,0,0,22
18,2021-03-22T00:17:00,2.5,北北西,4.2,北北西,8.5,93.7,0,0,0,22
19,2021-03-22T00:18:00,2.5,北,4.2,北北西,8.6,93.3,0,0,0,22
20,2021-03-22T00:19:00,2.5,北,4.2,北北西,8.6,93.2,0,0,0,22
21,2021-03-22T00:20:00,2.5,北,4.2,北北西,8.6,93.1,0,0,0,22
22,2021-03-22T00:21:00,2.4,北,3.9,北北西,8.6,92.8,0,0,0,22
23,2021-03-22T00:22:00,2.3,北,3.9,北北西,8.5,92.5,0,0,0,22
24,2021-03-22T00:23:00,2.2,北,3.7,北北西,8.5,92.2,0,0,0,22
25,2021-03-22T00:24:00,2.2,北北西,3.7,北北西,8.5,92,0,0,0,22
26,2021-03-22T00:25:00,2.2,北北西,3.7,北北西,8.4,91.7,0,0,0,22
27,2021-03-22T00:26:00,2.1,北北西,3.7,北北西,8.5,91.8,0,0,0,22
28,2021-03-22T00:27:00,2,北北西,3.7,北北西,8.5,91.6,0,0,0,22
29,2021-03-22T00:28:00,1.9,北北西,3.4,西北西,8.4,91.2,0,0,0,22
30,2021-03-22T00:29:00,1.8,北北西,3.4,西北西,8.4,91.2,0,0,0,22
31,2021-03-22T00:30:00,1.8,北北西,3.4,西北西,8.4,91.1,0,0,0,22
32,2021-03-22T00:31:00,1.8,北北西,3.4,西北西,8.4,91.1,0,0,0,22
33,2021-03-22T00:32:00,1.8,北北西,3.2,北西,8.4,90.9,0,0,0,22
34,2021-03-22T00:33:00,1.8,北北西,3.2,北西,8.4,90.9,0,0,0,22
35,2021-03-22T00:34:00,1.8,北北西,3.2,北西,8.3,90.8,0,0,0,22
36,2021-03-22T00:35:00,1.7,北北西,2.9,北,8.4,90.9,0,0,0,22
37,2021-03-22T00:36:00,1.8,北,2.9,北,8.4,91,0,0,0,22
38,2021-03-22T00:37:00,1.8,北,3,北北東,8.4,90.9,0,0,0,22
39,2021-03-22T00:38:00,1.9,北,3,北北東,8.4,91,0,0,0,22
40,2021-03-22T00:39:00,1.9,北,3.6,北北東,8.4,90.8,0,0,0,22
41,2021-03-22T00:40:00,2.1,北,3.9,北北東,8.4,90.7,0,0,0,22
42,2021-03-22T00:41:00,2.2,北,3.9,北北東,8.4,90.6,0,0,0,22
43,2021-03-22T00:42:00,2.3,北,4.2,北北東,8.4,90.4,0,0,0,22
44,2021-03-22T00:43:00,2.3,北北東,4.2,北北東,8.3,90.2,0,0,0,22
45,2021-03-22T00:44:00,2.4,北北東,4.2,北北東,8.3,90,0,0,0,22
46,2021-03-22T00:45:00,2.4,北北東,4.2,北北東,8.3,90,0,0,0,22
47,2021-03-22T00:46:00,2.4,北北東,4.2,北北東,8.3,89.9,0,0,0,22
48,2021-03-22T00:47:00,2.4,北北東,4.2,北北東,8.3,89.6,0,0,0,22
49,2021-03-22T00:48:00,2.3,北北東,4.2,北北東,8.3,89.8,0,0,0,22
50,2021-03-22T00:49:00,2.3,北北東,4.2,北北東,8.3,89.7,0,0,0,22
51,2021-03-22T00:50:00,2.2,北北東,4.2,北北東,8.3,89.6,0,0,0,22
52,2021-03-22T00:51:00,2.1,北北東,4.2,北北東,8.3,89.6,0,0,0,22
53,2021-03-22T00:52:00,2.2,北北東,4.6,北,8.3,89.3,0,0,0,22
54,2021-03-22T00:53:00,2.1,北北東,4.6,北,8.3,89.2,0,0,0,22
55,2021-03-22T00:54:00,2.1,北北東,4.6,北,8.3,88.9,0,0,0,22
56,2021-03-22T00:55:00,2.1,北北東,4.6,北,8.3,88.7,0,0,0,22
57,2021-03-22T00:56:00,2.1,北北東,4.6,北,8.3,88.6,0,0,0,22
58,2021-03-22T00:57:00,2.2,北北東,4.6,北,8.3,88.4,0,0,0,22
59,2021-03-22T00:58:00,2.3,北北東,4.6,北,8.3,88.4,0,0,0,22
60,2021-03-22T00:59:00,2.3,北北東,4.6,北,8.3,88.2,0,0,0,22
61,2021-03-22T01:00:00,2.2,北北東,4.6,北,8.3,88,0,0,0,22
62,2021-03-22T01:01:00,2.1,北,4.6,北,8.3,87.8,0,0,0,22
63,2021-03-22T01:02:00,1.8,北,3.6,北,8.3,87.7,0,0,0,22
64,2021-03-22T01:03:00,1.7,北,3.6,北,8.3,87.9,0,0,0,22
65,2021-03-22T01:04:00,1.6,北,3.6,北,8.2,88.2,0,0,0,22
66,2021-03-22T01:05:00,1.5,北,3.6,北,8.2,88,0,0,0,22
67,2021-03-22T01:06:00,1.4,北,3.5,北北西,8.2,88.2,0,0,0,22
68,2021-03-22T01:07:00,1.2,北,2.8,北北東,8.2,88.3,0,0,0,22
69,2021-03-22T01:08:00,1.1,北,2.8,北北東,8.2,88.3,0,0,0,22
70,2021-03-22T01:09:00,1.1,北,2,北,8.2,88.4,0,0,0,22
71,2021-03-22T01:10:00,1.1,北,2.2,北北東,8.1,88.2,0,0,0,22
72,2021-03-22T01:11:00,1.2,北,2.4,北北東,8.1,88.1,0,0,0,22
73,2021-03-22T01:12:00,1.3,北,2.4,北北東,8.1,88,0,0,0,22
74,2021-03-22T01:13:00,1.4,北北東,2.4,北北東,8.1,88,0,0,0,22
75,2021-03-22T01:14:00,1.4,北北東,2.4,北北東,8.1,88,0,0,0,22
76,2021-03-22T01:15:00,1.5,北北東,2.4,北北東,8.1,88,0,0,0,22
77,2021-03-22T01:16:00,1.5,北北東,2.4,北北東,8.1,88.2,0,0,0,22
78,2021-03-22T01:17:00,1.4,北北東,2.4,北北東,8.1,88.4,0,0,0,22
79,2021-03-22T01:18:00,1.4,北北東,2.4,北北東,8.1,88.3,0,0,0,22
80,2021-03-22T01:19:00,1.2,北北東,2.4,北北東,8.1,88.5,0,0,0,22
81,2021-03-22T01:20:00,1.1,北北東,2.4,北北東,8.1,88.7,0,0,0,22
82,2021-03-22T01:21:00,0.9,北北東,2,北東,8,88.5,0,0,0,22
83,2021-03-22T01:22:00,0.8,北北東,2,北東,8,88.6,0,0,0,22
84,2021-03-22T01:23:00,0.7,北北東,1.7,北北東,8.1,89,0,0,0,22
85,2021-03-22T01:24:00,0.5,北北東,1.6,北北東,8,88.6,0,0,0,22
86,2021-03-22T01:25:00,0.4,北北東,1.2,北東,8.1,88.4,0,0,0,22
87,2021-03-22T01:26:00,0.4,北北東,1,北東,8,88.1,0,0,0,22
88,2021-03-22T01:27:00,0.3,北北東,0.8,北東,8.1,88,0,0,0,22
89,2021-03-22T01:28:00,0.3,北東,0.8,北東,8.1,87.9,0,0,0,22
90,2021-03-22T01:29:00,0.3,北東,0.8,北東,8.1,87.7,0,0,0,22
91,2021-03-22T01:30:00,0.2,静穏,0.5,北北東,8.1,87.7,0,0,0,22
92,2021-03-22T01:31:00,0.2,静穏,0.5,北北東,8.1,87.8,0,0,0,22
93,2021-03-22T01:32:00,0.1,静穏,0.5,北北東,8,88.3,0,0,0,22
94,2021-03-22T01:33:00,0.1,静穏,0.5,北北東,8,88.7,0,0,0,22
95,2021-03-22T01:34:00,0.1,静穏,0.5,北北東,8,89.2,0,0,0,22
96,2021-03-22T01:35:00,0.1,静穏,0.6,西南西,7.9,89.4,0,0,0,22
97,2021-03-22T01:36:00,0.1,静穏,0.6,西南西,7.9,89.9,0,0,0,22
98,2021-03-22T01:37:00,0.2,静穏,1.2,西南西,7.8,90.5,0,0,0,22
99,2021-03-22T01:38:00,0.3,西,1.2,西南西,7.8,90.9,0,0,0,22
100,2021-03-22T01:39:00,0.4,西,1.4,南西,7.6,91.1,0,0,0,22
101,2021-03-22T01:40:00,0.5,西,1.6,南西,7.6,91.4,0,0,0,22
102,2021-03-22T01:41:00,0.7,西南西,1.7,西南西,7.6,91.7,0,0,0,22
103,2021-03-22T01:42:00,0.8,西南西,1.7,西南西,7.7,92,0,0,0,22
104,2021-03-22T01:43:00,0.8,西南西,1.7,西南西,7.8,92.4,0,0,0,22
105,2021-03-22T01:44:00,0.9,西南西,1.7,西南西,7.8,92.8,0,0,0,22
106,2021-03-22T01:45:00,1,西南西,1.7,西南西,7.9,92.9,0,0,0,22
107,2021-03-22T01:46:00,1,西南西,1.7,西南西,7.8,93,0,0,0,22
108,2021-03-22T01:47:00,0.9,西南西,1.7,西南西,7.7,92.6,0,0,0,22
109,2021-03-22T01:48:00,0.8,西南西,1.7,西南西,7.7,92.5,0,0,0,22
110,2021-03-22T01:49:00,0.7,西南西,1.7,西南西,7.7,92.7,0,0,0,22
111,2021-03-22T01:50:00,0.6,西南西,1.7,西南西,7.6,93.1,0,0,0,22
112,2021-03-22T01:51:00,0.4,西南西,1.5,南南西,7.6,92.9,0,0,0,22
113,2021-03-22T01:52:00,0.4,西,1,西南西,7.6,93.3,0,0,0,22
114,2021-03-22T01:53:00,0.4,西,1.2,北北西,7.5,93,0,0,0,22
115,2021-03-22T01:54:00,0.5,西北西,1.7,北北西,7.4,93,0,0,0,22
116,2021-03-22T01:55:00,0.5,西北西,2,北北西,7.4,93.4,0,0,0,22
117,2021-03-22T01:56:00,0.7,西北西,2.2,北北西,7.5,93.9,0,0,0,22
118,2021-03-22T01:57:00,0.8,北西,2.2,北北西,7.5,94.1,0,0,0,22
119,2021-03-22T01:58:00,1,北北西,2.2,北北西,7.4,94,0,0,0,22
120,2021-03-22T01:59:00,1.2,北北西,2.2,北北西,7.4,93.9,0,0,0,22
121,2021-03-22T02:00:00,1.3,北北西,2.2,北北西,7.4,94.4,0,0,0,22
122,2021-03-22T02:01:00,1.5,北北西,2.2,北北西,7.4,94.5,0,0,0,22
123,2021-03-22T02:02:00,1.6,北,2.2,北北西,7.4,94.6,0,0,0,22
124,2021-03-22T02:03:00,1.7,北,2.2,北北西,7.4,94.6,0,0,0,22
125,2021-03-22T02:04:00,1.7,北,2.2,北北西,7.4,94.7,0,0,0,22
126,2021-03-22T02:05:00,1.7,北,2.2,北北西,7.3,94.9,0,0,0,22
127,2021-03-22T02:06:00,1.6,北,2.1,北,7.3,95,0,0,0,22
128,2021-03-22T02:07:00,1.6,北,2.1,北,7.3,95.1,0,0,0,22
129,2021-03-22T02:08:00,1.5,北,2.1,北,7.4,95.3,0,0,0,22
130,2021-03-22T02:09:00,1.4,北,1.9,北,7.4,95.4,0,0,0,22
131,2021-03-22T02:10:00,1.3,北,1.9,北,7.5,95.5,0,0,0,22
132,2021-03-22T02:11:00,1.2,北,1.8,北,7.4,95.4,0,0,0,22
133,2021-03-22T02:12:00,1.1,北,1.8,北,7.3,95.3,0,0,0,22
134,2021-03-22T02:13:00,1.1,北,1.8,北,7.4,95.3,0,0,0,22
135,2021-03-22T02:14:00,1,北,1.7,北北東,7.4,95.5,0,0,0,22
136,2021-03-22T02:15:00,0.9,北,1.6,北北東,7.3,95.3,0,0,0,22
137,2021-03-22T02:16:00,0.8,北,1.5,北北東,7.3,95.5,0,0,0,22
138,2021-03-22T02:17:00,0.8,北,1.3,北,7.4,95.4,0,0,0,22
139,2021-03-22T02:18:00,0.7,北,1.2,北北西,7.4,95.8,0,0,0,22
140,2021-03-22T02:19:00,0.7,北,1.2,北北西,7.4,95.6,0,0,0,22
141,2021-03-22T02:20:00,0.7,北,1.2,北北西,7.3,95.2,0,0,0,22
142,2021-03-22T02:21:00,0.7,北北西,1.2,北北西,7.4,95.4,0,0,0,22
143,2021-03-22T02:22:00,0.7,北北西,1.2,北北西,7.4,95.4,0,0,0,22
144,2021-03-22T02:23:00,0.7,北北西,2.5,北北東,7.4,95.4,0,0,0,22
145,2021-03-22T02:24:00,0.7,北北西,2.5,北北東,7.4,95.2,0,0,0,22
146,2021-03-22T02:25:00,0.8,北北西,2.5,北北東,7.4,95.3,0,0,0,22
147,2021-03-22T02:26:00,0.8,北,2.5,北北東,7.5,95.2,0,0,0,22
148,2021-03-22T02:27:00,1,北,2.5,北北東,7.5,95.1,0,0,0,22
149,2021-03-22T02:28:00,1.1,北,2.5,北北東,7.4,94.8,0,0,0,22
150,2021-03-22T02:29:00,1.1,北,2.5,北北東,7.5,94.7,0,0,0,22
151,2021-03-22T02:30:00,1.2,北北東,2.5,北北東,7.5,94.6,0,0,0,22
152,2021-03-22T02:31:00,1.2,北北東,2.5,北北東,7.5,94.6,0,0,0,22
153,2021-03-22T02:32:00,1.3,北東,2.5,北北東,7.5,94.4,0,0,0,22
154,2021-03-22T02:33:00,1.3,北東,2.4,北東,7.4,94.1,0,0,0,22
155,2021-03-22T02:34:00,1.3,東北東,2.4,北東,7.4,94.1,0,0,0,22
156,2021-03-22T02:35:00,1.4,東北東,2.6,南東,7.4,94.1,0,0,0,22
157,2021-03-22T02:36:00,1.5,東,2.6,南東,7.4,94.1,0,0,0,22
158,2021-03-22T02:37:00,1.4,東南東,2.6,南東,7.5,94.5,0,0,0,22
159,2021-03-22T02:38:00,1.3,東南東,2.6,南東,7.5,94.5,0,0,0,22
160,2021-03-22T02:39:00,1.3,南東,2.6,南東,7.4,94.2,0,0,0,22
161,2021-03-22T02:40:00,1.3,南南東,2.6,南東,7.4,94.1,0,0,0,22
162,2021-03-22T02:41:00,1.3,南,2.6,南東,7.4,94.2,0,0,0,22
163,2021-03-22T02:42:00,1.3,南南西,2.6,南東,7.4,94.1,0,0,0,22
164,2021-03-22T02:43:00,1.3,南南西,2.6,南東,7.4,94.1,0,0,0,22
165,2021-03-22T02:44:00,1.3,南西,2.6,南東,7.4,94.4,0,0,0,22
166,2021-03-22T02:45:00,1.1,南西,1.8,南南西,7.5,94.7,0,0,0,22
167,2021-03-22T02:46:00,1.1,南西,1.6,南南西,7.5,95,0,0,0,22
168,2021-03-22T02:47:00,1,西南西,1.6,南南西,7.4,94.7,0,0,0,22
169,2021-03-22T02:48:00,1,西南西,1.5,南西,7.3,94,0,0,0,22
170,2021-03-22T02:49:00,1,西,1.5,南西,7.4,93.7,0,0,0,22
171,2021-03-22T02:50:00,0.9,西,1.5,南西,7.4,93.9,0,0,0,22
172,2021-03-22T02:51:00,0.9,西北西,1.5,南西,7.4,93.8,0,0,0,22
173,2021-03-22T02:52:00,0.9,西北西,1.8,北北西,7.4,93.5,0,0,0,22
174,2021-03-22T02:53:00,1,北西,2.1,北,7.4,93.5,0,0,0,22
175,2021-03-22T02:54:00,1.1,北北西,2.5,北,7.4,93.3,0,0,0,22
176,2021-03-22T02:55:00,1.2,北北西,2.5,北,7.4,93.1,0,0,0,22
177,2021-03-22T02:56:00,1.3,北北西,2.5,北,7.4,93,0,0,0,22
178,2021-03-22T02:57:00,1.4,北,2.5,北,7.4,92.7,0,0,0,22
179,2021-03-22T02:58:00,1.5,北,2.8,北,7.4,92.4,0,0,0,22
180,2021-03-22T02:59:00,1.7,北,2.8,北,7.4,92.3,0,0,0,22
181,2021-03-22T03:00:00,1.8,北,2.8,北,7.4,91.9,0,0,0,22
182,2021-03-22T03:01:00,1.9,北,2.8,北,7.4,91.7,0,0,0,22
183,2021-03-22T03:02:00,1.9,北,2.8,北,7.4,91.6,0,0,0,22
184,2021-03-22T03:03:00,2,北,3.3,北北西,7.4,91.6,0,0,0,22
185,2021-03-22T03:04:00,2,北,3.3,北北西,7.4,91.2,0,0,0,22
186,2021-03-22T03:05:00,2.1,北,3.3,北北西,7.3,91.2,0,0,0,22
187,2021-03-22T03:06:00,2.2,北,3.6,北北西,7.3,91.3,0,0,0,22
188,2021-03-22T03:07:00,2.1,北,3.6,北北西,7.3,91.4,0,0,0,22
189,2021-03-22T03:08:00,2.1,北,3.6,北北西,7.3,91.6,0,0,0,22
190,2021-03-22T03:09:00,2,北,3.6,北北西,7.3,91.4,0,0,0,22
191,2021-03-22T03:10:00,2.1,北,3.8,北,7.2,91.3,0,0,0,22
192,2021-03-22T03:11:00,2.2,北,4.1,北北西,7.2,91.3,0,0,0,22
193,2021-03-22T03:12:00,2.3,北,4.1,北北西,7.2,91.6,0,0,0,22
194,2021-03-22T03:13:00,2.4,北,4.3,北北西,7.1,91.4,0,0,0,22
195,2021-03-22T03:14:00,2.4,北北西,4.3,北北西,7.2,91.5,0,0,0,22
196,2021-03-22T03:15:00,2.3,北北西,4.3,北北西,7.2,91.6,0,0,0,22
197,2021-03-22T03:16:00,2.2,北北西,4.3,北北西,7.1,91.5,0,0,0,22
198,2021-03-22T03:17:00,2.2,北北西,4.3,北北西,7.1,91.2,0,0,0,22
199,2021-03-22T03:18:00,2.3,北北西,4.3,北北西,7.1,91,0,0,0,22
200,2021-03-22T03:19:00,2.4,北北西,4.3,北北西,7.1,90.9,0,0,0,22
201,2021-03-22T03:20:00,2.3,北北西,4.3,北北西,7.1,90.8,0,0,0,22
202,2021-03-22T03:21:00,2.2,北北西,4.3,北北西,7.2,90.7,0,0,0,22
203,2021-03-22T03:22:00,2.2,北北西,4.3,北北西,7.2,90.5,0,0,0,22
204,2021-03-22T03:23:00,2.2,北北西,3.9,北,7.2,90.2,0,0,0,22
205,2021-03-22T03:24:00,2.3,北北西,4.5,北,7.2,90,0,0,0,22
206,2021-03-22T03:25:00,2.4,北北西,4.5,北,7.2,89.9,0,0,0,22
207,2021-03-22T03:26:00,2.6,北,4.5,北,7.1,89.8,0,0,0,22
208,2021-03-22T03:27:00,2.6,北,4.5,北,7.1,89.5,0,0,0,22
209,2021-03-22T03:28:00,2.7,北,4.5,北,7.1,89.5,0,0,0,22
210,2021-03-22T03:29:00,2.7,北,4.5,北,7.1,89.6,0,0,0,22
211,2021-03-22T03:30:00,2.9,北,4.5,北,7,89.6,0,0,0,22
212,2021-03-22T03:31:00,3,北,4.5,北,7,89.5,0,0,0,22
213,2021-03-22T03:32:00,3.1,北,4.5,北,7,89.5,0,0,0,22
214,2021-03-22T03:33:00,3,北,4.5,北,7.1,89.8,0,0,0,22
215,2021-03-22T03:34:00,2.8,北,4.3,北北西,7,89.7,0,0,0,22
216,2021-03-22T03:35:00,2.8,北,4.3,北北西,7,89.8,0,0,0,22
217,2021-03-22T03:36:00,2.8,北,4.4,北,7,89.7,0,0,0,22
218,2021-03-22T03:37:00,2.9,北,4.8,北,7,89.7,0,0,0,22
219,2021-03-22T03:38:00,2.9,北,4.8,北,7,89.9,0,0,0,22
220,2021-03-22T03:39:00,2.8,北,4.8,北,7,89.9,0,0,0,22
221,2021-03-22T03:40:00,2.7,北,4.8,北,6.9,89.9,0,0,0,22
222,2021-03-22T03:41:00,2.6,北,4.8,北,6.9,89.9,0,0,0,22
223,2021-03-22T03:42:00,2.5,北,4.8,北,6.9,89.9,0,0,0,22
224,2021-03-22T03:43:00,2.4,北,4.8,北,6.9,90.3,0,0,0,22
225,2021-03-22T03:44:00,2.5,北,4.8,北,6.9,90.3,0,0,0,22
226,2021-03-22T03:45:00,2.5,北,4.8,北,6.9,90.2,0,0,0,22
227,2021-03-22T03:46:00,2.5,北,4.9,北北西,6.9,90.2,0,0,0,22
228,2021-03-22T03:47:00,2.6,北,5,北北西,6.8,89.9,0,0,0,22
229,2021-03-22T03:48:00,2.5,北北西,5,北北西,6.8,89.9,0,0,0,22
230,2021-03-22T03:49:00,2.6,北北西,5,北北西,6.8,89.8,0,0,0,22
231,2021-03-22T03:50:00,2.6,北北西,5,北北西,6.7,89.6,0,0,0,22
232,2021-03-22T03:51:00,2.6,北北西,5.9,北西,6.8,89.7,0,0,0,22
233,2021-03-22T03:52:00,2.8,北北西,6.8,北北西,6.7,89.4,0,0,0,22
234,2021-03-22T03:53:00,3.3,北北西,9.2,北西,6.7,88.9,0,0,0,22
235,2021-03-22T03:54:00,3.5,北北西,9.2,北西,6.7,88.3,0,0,0,22
236,2021-03-22T03:55:00,3.8,北北西,9.2,北西,6.7,88.2,0,0,0,22
237,2021-03-22T03:56:00,3.9,北北西,9.2,北西,6.7,87.6,0,0,0,22
238,2021-03-22T03:57:00,3.8,北北西,9.2,北西,6.7,87.3,0,0,0,22
239,2021-03-22T03:58:00,3.7,北北西,9.2,北西,6.6,87.2,0,0,0,22
240,2021-03-22T03:59:00,3.5,北西,9.2,北西,6.6,87,0,0,0,22
241,2021-03-22T04:00:00,3.5,北西,9.2,北西,6.6,87.3,0,0,0,22
242,2021-03-22T04:01:00,3.5,北西,9.2,北西,6.6,86.7,0,0,0,22
243,2021-03-22T04:02:00,3.4,北北西,9.2,北西,6.6,86.7,0,0,0,22
244,2021-03-22T04:03:00,3.1,北北西,6.9,北北西,6.6,86.7,0,0,0,22
245,2021-03-22T04:04:00,3.1,北北西,6.9,北北西,6.7,86.5,0,0,0,22
246,2021-03-22T04:05:00,2.8,北北西,5.6,北,6.6,86,0,0,0,22
247,2021-03-22T04:06:00,2.7,北北西,5.3,北北西,6.6,85.8,0,0,0,22
248,2021-03-22T04:07:00,2.5,北北西,4.8,北,6.6,85.8,0,0,0,22
249,2021-03-22T04:08:00,2.4,北北西,4.8,北,6.6,85.8,0,0,0,22
250,2021-03-22T04:09:00,2.4,北北西,4.8,北,6.6,85.9,0,0,0,22
251,2021-03-22T04:10:00,2.3,北北西,4.8,北,6.5,85.7,0,0,0,22
252,2021-03-22T04:11:00,2.1,北北西,4.8,北,6.4,85.8,0,0,0,22
253,2021-03-22T04:12:00,1.8,北北西,4.8,北,6.4,86.1,0,0,0,22
254,2021-03-22T04:13:00,1.6,北北西,4.8,北,6.4,86.3,0,0,0,22
255,2021-03-22T04:14:00,1.3,北北西,3.7,北,6.5,86.7,0,0,0,22
256,2021-03-22T04:15:00,1,北北西,3.4,北北西,6.5,86.7,0,0,0,22
257,2021-03-22T04:16:00,0.9,北北西,2,北北西,6.5,87,0,0,0,22
258,2021-03-22T04:17:00,0.8,北北西,1.7,北北西,6.4,86.8,0,0,0,22
259,2021-03-22T04:18:00,0.8,北,1.7,北北西,6.4,86.7,0,0,0,22
260,2021-03-22T04:19:00,0.8,北,1.5,北東,6.4,87.1,0,0,0,22
261,2021-03-22T04:20:00,0.8,北北東,1.5,北東,6.4,87.2,0,0,0,22
262,2021-03-22T04:21:00,0.8,北北東,1.7,北東,6.4,87.2,0,0,0,22
263,2021-03-22T04:22:00,0.9,北東,1.8,北東,6.4,87.3,0,0,0,22
264,2021-03-22T04:23:00,0.9,北東,1.8,北東,6.4,87.4,0,0,0,22
265,2021-03-22T04:24:00,1,北北東,1.8,北東,6.4,87.6,0,0,0,22
266,2021-03-22T04:25:00,1,北東,1.8,北東,6.4,87.4,0,0,0,22
267,2021-03-22T04:26:00,0.9,北東,1.8,北東,6.4,87.7,0,0,0,22
268,2021-03-22T04:27:00,0.8,北東,1.8,北東,6.4,87.9,0,0,0,22
269,2021-03-22T04:28:00,0.8,北東,1.8,北東,6.4,88,0,0,0,22
270,2021-03-22T04:29:00,0.8,北東,1.8,北東,6.4,88.1,0,0,0,22
271,2021-03-22T04:30:00,0.7,北東,1.8,北東,6.5,88.7,0,0,0,22
272,2021-03-22T04:31:00,0.6,北北東,1.8,北東,6.4,88.6,0,0,0,22
273,2021-03-22T04:32:00,0.4,北北東,1.7,北,6.4,88.5,0,0,0,22
274,2021-03-22T04:33:00,0.3,北北東,1.4,北北東,6.3,88.5,0,0,0,22
275,2021-03-22T04:34:00,0.2,静穏,0.7,東北東,6.3,88.6,0,0,0,22
276,2021-03-22T04:35:00,0.2,静穏,0.9,西南西,6.2,89.1,0,0,0,22
277,2021-03-22T04:36:00,0.3,北北西,1,西南西,6.2,89.5,0,0,0,22
278,2021-03-22T04:37:00,0.3,北西,1,西南西,6.1,90,0,0,0,22
279,2021-03-22T04:38:00,0.3,西北西,1,西南西,6,89.8,0,0,0,22
280,2021-03-22T04:39:00,0.2,静穏,1,西南西,5.9,90,0,0,0,22
281,2021-03-22T04:40:00,0.2,静穏,1,西南西,5.9,90.6,0,0,0,22
282,2021-03-22T04:41:00,0.2,静穏,1,西南西,6,91.4,0,0,0,22
283,2021-03-22T04:42:00,0.2,静穏,1,西南西,6.1,91.7,0,0,0,22
284,2021-03-22T04:43:00,0.3,南南西,1.1,南南東,6,91.6,0,0,0,22
285,2021-03-22T04:44:00,0.4,南,1.1,南南東,5.9,91.7,0,0,0,22
286,2021-03-22T04:45:00,0.4,南,1.1,南南東,5.9,91.9,0,0,0,22
287,2021-03-22T04:46:00,0.4,南南東,1.1,南南東,5.8,91.8,0,0,0,22
288,2021-03-22T04:47:00,0.4,南南東,1.1,南南東,5.8,91.9,0,0,0,22
289,2021-03-22T04:48:00,0.4,南南東,1.1,南南東,5.8,92.1,0,0,0,22
290,2021-03-22T04:49:00,0.5,南,1.1,南南東,5.8,92.8,0,0,0,22
291,2021-03-22T04:50:00,0.6,南,1.1,南南東,5.8,92.9,0,0,0,22
292,2021-03-22T04:51:00,0.6,南南西,1.1,南南東,5.7,92.8,0,0,0,22
293,2021-03-22T04:52:00,0.7,南南西,1.4,南西,5.7,92.9,0,0,0,22
294,2021-03-22T04:53:00,0.7,南西,1.5,南西,5.6,93.1,0,0,0,22
295,2021-03-22T04:54:00,0.8,南西,1.5,南西,5.7,93.3,0,0,0,22
296,2021-03-22T04:55:00,0.7,南西,1.5,南西,5.7,93.6,0,0,0,22
297,2021-03-22T04:56:00,0.7,西南西,1.5,南西,5.7,93.8,0,0,0,22
298,2021-03-22T04:57:00,0.7,西南西,1.5,南西,5.7,94,0,0,0,22
299,2021-03-22T04:58:00,0.7,西南西,1.5,南西,5.7,94.1,0,0,0,22
300,2021-03-22T04:59:00,0.7,西南西,1.5,南西,5.8,94.4,0,0,0,22
301,2021-03-22T05:00:00,0.7,西南西,1.5,南西,5.7,94.5,0,0,0,22
302,2021-03-22T05:01:00,0.6,西南西,1.5,南西,5.7,94.2,0,0,0,22
303,2021-03-22T05:02:00,0.5,西南西,1.5,南西,5.7,94.3,0,0,0,22
304,2021-03-22T05:03:00,0.4,西南西,1.3,南西,5.9,94.8,0,0,0,22
305,2021-03-22T05:04:00,0.3,西,1.1,西南西,5.8,95,0,0,0,22
306,2021-03-22T05:05:00,0.3,西,1,西南西,5.8,94.8,0,0,0,22
307,2021-03-22T05:06:00,0.3,西,0.8,東,5.8,94.7,0,0,0,22
308,2021-03-22T05:07:00,0.3,北西,0.8,東,5.8,94.9,0,0,0,22
309,2021-03-22T05:08:00,0.3,北北西,0.8,東,5.8,95.1,0,0,0,22
310,2021-03-22T05:09:00,0.3,北,0.8,東,5.8,95,0,0,0,22
311,2021-03-22T05:10:00,0.3,北,0.8,東,5.6,94.5,0,0,0,22
312,2021-03-22T05:11:00,0.3,北北東,0.8,東,5.6,94.6,0,0,0,22
313,2021-03-22T05:12:00,0.3,北北東,0.8,東,5.5,94.5,0,0,0,22
314,2021-03-22T05:13:00,0.4,北北東,0.8,東,5.5,94.4,0,0,0,22
315,2021-03-22T05:14:00,0.4,北北東,1,北北西,5.5,94.8,0,0,0,22
316,2021-03-22T05:15:00,0.5,北,1,北北西,5.4,94.6,0,0,0,22
317,2021-03-22T05:16:00,0.5,北,1.1,北,5.4,94.9,0,0,0,22
318,2021-03-22T05:17:00,0.5,北,1.1,北,5.5,95.2,0,0,0,22
319,2021-03-22T05:18:00,0.5,北,1.1,北,5.4,95.3,0,0,0,22
320,2021-03-22T05:19:00,0.4,北,1.1,北,5.4,95.2,0,0,0,22
321,2021-03-22T05:20:00,0.4,北北西,1.1,北,5.5,95.3,0,0,0,22
322,2021-03-22T05:21:00,0.5,北北西,1.1,北,5.5,95.5,0,0,0,22
323,2021-03-22T05:22:00,0.5,北西,1.1,北,5.5,95.5,0,0,0,22
324,2021-03-22T05:23:00,0.4,北西,1.1,北,5.5,95.5,0,0,0,22
325,2021-03-22T05:24:00,0.4,西北西,1.1,北,5.5,95.5,0,0,0,22
326,2021-03-22T05:25:00,0.3,西北西,1.1,北,5.5,95.6,0,0,0,22
327,2021-03-22T05:26:00,0.3,西,0.6,南南西,5.5,95.7,0,0,0,22
328,2021-03-22T05:27:00,0.3,西,0.6,南南西,5.4,95.6,0,0,0,22
329,2021-03-22T05:28:00,0.3,西南西,0.6,南南西,5.5,95.5,0,0,0,22
330,2021-03-22T05:29:00,0.3,西南西,0.6,南南西,5.5,95.7,0,0,0,22
331,2021-03-22T05:30:00,0.2,静穏,0.6,南南西,5.5,95.7,0,0,0,22
332,2021-03-22T05:31:00,0.2,静穏,0.6,南南西,5.5,95.8,0,0,0,22
333,2021-03-22T05:32:00,0.3,南南西,0.7,南南西,5.5,95.7,0,0,0,22
334,2021-03-22T05:33:00,0.3,南南西,0.9,南東,5.5,95.6,0,0,0,22
335,2021-03-22T05:34:00,0.3,南南西,0.9,南東,5.5,95.7,0,0,0,22
336,2021-03-22T05:35:00,0.3,南,0.9,南東,5.5,95.7,0,0,0,22
337,2021-03-22T05:36:00,0.3,南,0.9,南東,5.5,95.8,0,0,0,22
338,2021-03-22T05:37:00,0.4,南,1.1,南南西,5.5,95.8,0,0,0,22
339,2021-03-22T05:38:00,0.5,南,1.3,南南西,5.4,95.8,0,0,0,22
340,2021-03-22T05:39:00,0.5,南南西,1.3,南南西,5.5,95.8,0,0,0,22
341,2021-03-22T05:40:00,0.6,南南西,1.3,南南西,5.6,96,0,0,0,22
342,2021-03-22T05:41:00,0.6,南西,1.3,南南西,5.5,96,0,0,0,22
343,2021-03-22T05:42:00,0.6,南西,1.3,南南西,5.4,95.8,0,0,0,22
344,2021-03-22T05:43:00,0.5,西南西,1.3,南南西,5.4,95.8,0,0,0,22
345,2021-03-22T05:44:00,0.5,西南西,1.3,南南西,5.5,95.9,0,0,0,22
346,2021-03-22T05:45:00,0.6,西南西,1.3,南南西,5.5,96,0,0,0,22
347,2021-03-22T05:46:00,0.6,西南西,1.3,南南西,5.5,96.1,0,0,0,22
348,2021-03-22T05:47:00,0.6,西南西,1.3,南南西,5.4,95.9,0,0,0,22
349,2021-03-22T05:48:00,0.6,西南西,1.3,南南西,5.5,95.9,0,0,0,22
350,2021-03-22T05:49:00,0.6,西南西,1,南南西,5.5,95.9,0,0,0,22
351,2021-03-22T05:50:00,0.6,南西,1,南南西,5.5,96,0,0,0,22
352,2021-03-22T05:51:00,0.6,南西,1,南南西,5.5,96.1,0,0,0,22
353,2021-03-22T05:52:00,0.6,南西,1.1,南南西,5.5,96.1,0,0,0,22
354,2021-03-22T05:53:00,0.7,南南西,1.4,南,5.5,96,0,0,0,22
355,2021-03-22T05:54:00,0.8,南南西,1.4,南,5.5,96,0,0,0,22
356,2021-03-22T05:55:00,0.8,南南西,1.5,南南西,5.4,96,0,0,0,22
357,2021-03-22T05:56:00,0.9,南南西,1.5,南南西,5.5,96.1,0,0,0,22
358,2021-03-22T05:57:00,0.9,南南西,1.5,南南西,5.5,96.1,0,0,0,22
359,2021-03-22T05:58:00,0.9,南,1.5,南南西,5.4,96.1,0,0,0,22
360,2021-03-22T05:59:00,0.9,南南西,1.5,南南西,5.4,96.1,0,0,0,22
361,2021-03-22T06:00:00,1,南南西,1.5,南南西,5.4,96.1,0,0,0,22
362,2021-03-22T06:01:00,1,南南西,1.5,南南西,5.4,96.1,0,0,0,22
363,2021-03-22T06:02:00,1.1,南南西,1.5,南南西,5.3,96.1,0,0,0,22
364,2021-03-22T06:03:00,1.1,南南西,2,南南西,5.4,96.1,0,0,0,22
365,2021-03-22T06:04:00,1.2,南南西,2,南南西,5.4,96.1,0,0,0,22
366,2021-03-22T06:05:00,1.2,南南西,2,南南西,5.3,96.2,0,0,0,22
367,2021-03-22T06:06:00,1.3,南南西,2,南南西,5.4,96.2,0,0,0,22
368,2021-03-22T06:07:00,1.3,南南西,2,南南西,5.4,96.3,0,0,0,22
369,2021-03-22T06:08:00,1.3,南南西,2,南南西,5.4,96.3,0,0,0,22
370,2021-03-22T06:09:00,1.3,南南西,2,南南西,5.4,96.3,0,0,0,22
371,2021-03-22T06:10:00,1.3,南南西,2,南南西,5.4,96.2,0,0,0,22
372,2021-03-22T06:11:00,1.3,南南西,2,南南西,5.3,96.1,0,0,0,22
373,2021-03-22T06:12:00,1.3,南南西,2,南南西,5.3,96.1,0,0,0,22
374,2021-03-22T06:13:00,1.2,南西,1.9,南南西,5.4,96.2,0,0,0,22
375,2021-03-22T06:14:00,1.1,南南西,1.9,南南西,5.3,96.2,0,0,0,22
376,2021-03-22T06:15:00,1,南南西,1.7,南南西,5.4,96.2,0,0,0,22
377,2021-03-22T06:16:00,0.9,南西,1.4,南西,5.4,96.3,0,0,0,22
378,2021-03-22T06:17:00,0.9,南西,1.4,南西,5.4,96.3,0,0,0,22
379,2021-03-22T06:18:00,0.9,南南西,1.4,南西,5.4,96.3,0,0,0,22
380,2021-03-22T06:19:00,0.9,南南西,1.4,南西,5.4,96.3,0,0,0,22
381,2021-03-22T06:20:00,0.9,南南西,1.4,南西,5.4,96.3,0,0,0,22
382,2021-03-22T06:21:00,0.9,南南西,1.4,南,5.5,96.4,0,0,0,22
383,2021-03-22T06:22:00,0.8,南南西,1.4,南,5.5,96.4,0,0,0,22
384,2021-03-22T06:23:00,0.8,南南西,1.4,南,5.4,96.4,0,0,0,22
385,2021-03-22T06:24:00,0.9,南南西,1.4,南,5.4,96.2,0,0,0,22
386,2021-03-22T06:25:00,0.9,南南西,1.4,南,5.4,96.2,0,0,0,22
387,2021-03-22T06:26:00,0.9,南南西,1.4,南,5.3,96.3,0,0,0,22
388,2021-03-22T06:27:00,0.9,南南西,1.4,南,5.3,96.2,0,0,0,22
389,2021-03-22T06:28:00,0.8,南南西,1.4,南,5.3,96.2,0,0,0,22
390,2021-03-22T06:29:00,0.8,南南西,1.3,南南西,5.3,96.3,0,0,0,22
391,2021-03-22T06:30:00,0.7,南南西,1.1,南東,5.3,96.3,0,0,0,22
392,2021-03-22T06:31:00,0.7,南南西,1.1,南東,5.3,96.3,0,0,0,22
393,2021-03-22T06:32:00,0.7,南,1.1,南東,5.4,96.4,0,0,0,22
394,2021-03-22T06:33:00,0.7,南,1.1,南東,5.2,96.3,0,0,0,22
395,2021-03-22T06:34:00,0.6,南,1.1,南東,5.2,96.1,0,0,0,22
396,2021-03-22T06:35:00,0.6,南南西,1.6,北西,5.2,96.2,0,0,0,22
397,2021-03-22T06:36:00,0.7,北北西,1.6,北西,5.1,96,0,0,0,22
398,2021-03-22T06:37:00,0.7,北,1.6,北西,5.1,95.9,0,0,0,22
399,2021-03-22T06:38:00,0.7,北,1.6,北西,5.2,96.3,0,0,0,22
400,2021-03-22T06:39:00,0.7,北北東,1.6,北西,5.2,96.4,0,0,0,22
401,2021-03-22T06:40:00,0.8,北北東,2,東,5.1,96.2,0,0,0,22
402,2021-03-22T06:41:00,1,北北東,2.6,東,5,96.1,0,0,0,22
403,2021-03-22T06:42:00,1.3,北北東,2.9,東,5,96.2,0,0,0,22
404,2021-03-22T06:43:00,1.5,北東,3.1,東,5,96.2,0,0,0,22
405,2021-03-22T06:44:00,1.7,東北東,3.1,東,5.1,96.3,0,0,0,22
406,2021-03-22T06:45:00,1.8,東北東,3.1,東,5.1,96.4,0,0,0,22
407,2021-03-22T06:46:00,1.8,東,3.1,東,5.2,96.5,0,0,0,22
408,2021-03-22T06:47:00,1.9,東,3.1,東,5.3,96.6,0,0,0,22
409,2021-03-22T06:48:00,1.9,東,3.1,東,5.4,96.7,0,0,0,22
410,2021-03-22T06:49:00,1.9,東,3.1,東,5.5,96.6,0,0,0,22
411,2021-03-22T06:50:00,1.9,東,3.1,東,5.5,96.4,0,0,0,22
412,2021-03-22T06:51:00,1.7,東,3.1,東,5.5,96.5,0,0,0,22
413,2021-03-22T06:52:00,1.5,東,3.1,東,5.5,96.4,0,0,0,22
414,2021-03-22T06:53:00,1.3,東,3.1,東,5.6,96.4,0,0,0,22
415,2021-03-22T06:54:00,1.1,東,2.7,南東,5.5,96.4,0,0,0,22
416,2021-03-22T06:55:00,0.9,東,2.5,南東,5.5,96.4,0,0,0,22
417,2021-03-22T06:56:00,0.8,南東,2.5,南東,5.5,96.3,0,0,0,22
418,2021-03-22T06:57:00,0.7,南,2.5,南東,5.5,96.2,0,0,0,22
419,2021-03-22T06:58:00,0.7,南南西,2.5,南東,5.5,96.2,0,0,0,22
420,2021-03-22T06:59:00,0.6,南南西,2.5,南東,5.5,96.2,0,0,0,22
421,2021-03-22T07:00:00,0.6,南西,1.4,東南東,5.6,96.2,0,0,0,22
422,2021-03-22T07:01:00,0.6,南西,1.6,西南西,5.6,96.3,0,0,0,22
423,2021-03-22T07:02:00,0.7,南西,1.6,西南西,5.6,96.3,0,0,0,22
424,2021-03-22T07:03:00,0.6,南西,1.6,西南西,5.5,96,0,0,0,22
425,2021-03-22T07:04:00,0.6,南西,1.6,西南西,5.6,95.7,0,0,0,22
426,2021-03-22T07:05:00,0.7,南西,1.6,西南西,5.8,95.6,0,0,0,22
427,2021-03-22T07:06:00,0.7,南西,1.6,西南西,5.9,95.9,0,0,0,22
428,2021-03-22T07:07:00,0.7,西南西,1.6,西南西,6,96,0,0,0,22
429,2021-03-22T07:08:00,0.7,西南西,1.6,西南西,6,96,0,0,0,22
430,2021-03-22T07:09:00,0.8,西南西,1.7,南南西,6,95.8,0,0,0,22